Regional Weather Roundup
Issued by NWS

Home | Current Version | Previous Version | Graphics & Text | Print | Product List | Glossary On
Versions: 1 2 3 4 5 6 7 8 9 10 11 12 13 14 15 16 17 18 19 20 21 22 23 24 25 26 27
000
ASUS45 KBOI 221310
RWRID

IDAHO REGIONAL WEATHER ROUNDUP
NATIONAL WEATHER SERVICE BOISE ID
600 AM MST SUN JAN 22 2017

NOTE: "FAIR" INDICATES FEW OR NO CLOUDS BELOW 12000 FEET
WITH NO SIGNIFICANT WEATHER AND/OR OBSTRUCTIONS TO VISIBILITY

IDZ012-014-221400-
SOUTHWEST IDAHO


CITY           SKY/WX    TMP DP  RH WIND       PRES   REMARKS
BOISE          PTCLDY    36  26  67 SE16      29.74F WCI  26
CALDWELL       PTCLDY    33  27  78 SE15      29.75F WCI  23
MOUNTAIN HOME  MOCLDY    31  31  99 E18       29.77F WCI  19
$$

IDZ016-017-221400-
SOUTHCENTRAL IDAHO


CITY           SKY/WX    TMP DP  RH WIND       PRES   REMARKS
BURLEY         PTCLDY    32  20  61 S6        29.84F WCI  26
JEROME         MOCLDY    31  21  66 E12       29.83F WCI  22
TWIN FALLS     PTCLDY    32  18  56 SE18      29.80F WCI  20
$$

IDZ019>023-221400-
SOUTHEAST IDAHO


CITY           SKY/WX    TMP DP  RH WIND       PRES   REMARKS
IDAHO FALLS    CLOUDY    21  20  96 NE3       29.91S
POCATELLO      CLOUDY    34  23  64 S13       29.89S WCI  25
REXBURG        CLOUDY    20  19  96 E3        29.91S
$$

IDZ006-010-011-018-031-032-221400-
CENTRAL IDAHO MOUNTAINS


CITY           SKY/WX    TMP DP  RH WIND       PRES   REMARKS
MCCALL         FOG       20  17  88 CALM      29.69F VSB 1/4
HAILEY         CLOUDY    25  21  86 NW3       29.85F
STANLEY          N/A     12   9  87 CALM      29.75F
SALMON         CLOUDY    12  10  92 N3        29.86F
CHALLIS        CLEAR      4   3  96 SW3       29.83F
$$

IDZ002-004-006-007-026-221400-
NORTHERN IDAHO


CITY           SKY/WX    TMP DP  RH WIND       PRES   REMARKS
LEWISTON       PTCLDY    34  29  82 E8        29.72F WCI  27
LOWELL           N/A     31  28  89 NW6       29.83F WCI  25
COEUR D`ALENE  CLOUDY    32  31  96 NE6       29.74F WCI  26
MULLAN PASS    LGT SNOW  25  22  88 S6        29.67F VSB 3/4 WCI  18
$$




USA.gov is the U.S. government's official web portal to all federal, state and local government web resources and services.